Weather History for Omaha, NE

Change the Weather History Date:

Thursday, February 6, 2014

  Actual Average Record
Temperature  
Mean Temperature 1 °F 26 °F  
Max Temperature 10 °F 35 °F 62 °F (2009)
Min Temperature -9 °F 16 °F -14 °F (1982)
Degree Days  
Heating Degree Days 64 39  
Month to date heating degree days 322 239  
Since 1 July heating degree days 4224 4004  
Cooling Degree Days 0 0  
Month to date cooling degree days 0 0  
Year to date cooling degree days 0 0  
Moisture  
Dew Point -8 °F    
Average Humidity 63    
Maximum Humidity 75    
Minimum Humidity 50    
Precipitation  
Precipitation 0.00 in 0.02 in 1.64 in (1881)
Month to date precipitation 0.17 0.16  
Year to date precipitation 0.31 0.88  
Snow  
Snow 0.00 in 0.20 in - ()
Month to date snowfall 4.8 1.4  
Since 1 July snowfall 10.2 16.5  
Snow Depth 3.00 in    
Sea Level Pressure  
Sea Level Pressure 30.61 in    
Wind  
Wind Speed 7 mph (WNW)    
Max Wind Speed 15 mph    
Max Gust Speed 18 mph    
Visibility 10 miles    
Events Fog    
T = Trace of Precipitation, MM = Missing Value Source: NWS Daily Summary

Daily Weather History Graph

Daily Weather History Graph

Search for Another Location

Airport:

Trip Planner

Search our weather history database for the weather conditions in past years. The results will help you decide how hot, cold, wet, or windy it might be!

Date:

Astronomy

Feb. 06, 2014 Rise Set
Actual Time 7:29 AM CST 5:46 PM CST
Civil Twilight 7:00 AM CST 6:15 PM CST
Nautical Twilight 6:27 AM CST 6:48 PM CST
Astronomical Twilight 5:55 AM CST 7:20 PM CST
Moon 11:18 AM CST (2/6) 12:46 AM CST (2/6)
Length of Visible Light 11h 14m
Length of Day
10h 16m
Waxing Crescent, 49% of the Moon is Illuminated
Feb 6
Waxing Crescent
Feb 6
First Quarter
Feb 14
Full
Feb 22
Last Quarter
Mar 1
New

Hourly Weather History & Observations

Time (CST) Temp. Windchill Dew Point Humidity Pressure Visibility Wind Dir Wind Speed Gust Speed Precip Events Conditions
12:52 AM -4.0 °F -19.0 °F -11.0 °F 72% 30.72 in 10.0 mi NNW 8.1 mph - N/A   Clear
1:52 AM -2.9 °F -15.0 °F -11.0 °F 68% 30.70 in 10.0 mi NNW 5.8 mph - N/A   Clear
2:52 AM -4.0 °F -16.3 °F -11.0 °F 72% 30.70 in 10.0 mi WNW 5.8 mph - N/A   Clear
3:52 AM -5.1 °F -19.1 °F -11.9 °F 72% 30.69 in 10.0 mi West 6.9 mph - N/A   Clear
4:52 AM -5.1 °F -19.1 °F -13.0 °F 69% 30.68 in 10.0 mi WNW 6.9 mph - N/A   Clear
5:52 AM -8.0 °F -27.1 °F -14.1 °F 75% 30.70 in 10.0 mi NW 11.5 mph - N/A   Clear
6:52 AM -6.0 °F -18.6 °F -13.0 °F 72% 30.70 in 10.0 mi WNW 5.8 mph - N/A   Clear
7:52 AM -6.0 °F -16.9 °F -14.1 °F 68% 30.70 in 10.0 mi West 4.6 mph - N/A Fog Patches of Fog
8:52 AM -2.9 °F -16.5 °F -13.0 °F 62% 30.70 in 10.0 mi WNW 6.9 mph - N/A   Partly Cloudy
9:52 AM -0.0 °F -11.6 °F -11.0 °F 60% 30.70 in 10.0 mi NW 5.8 mph - N/A   Partly Cloudy
10:52 AM 1.9 °F -7.6 °F -9.0 °F 60% 30.69 in 10.0 mi NW 4.6 mph - N/A   Partly Cloudy
11:52 AM 7.0 °F -4.5 °F -7.1 °F 53% 30.66 in 10.0 mi West 6.9 mph - N/A   Partly Cloudy
12:52 PM 8.1 °F -6.2 °F -6.0 °F 53% 30.62 in 10.0 mi NW 10.4 mph - N/A   Scattered Clouds
1:52 PM 9.0 °F -7.9 °F -6.0 °F 51% 30.59 in 10.0 mi West 15.0 mph - N/A   Scattered Clouds
2:52 PM 9.0 °F -4.2 °F -6.0 °F 51% 30.57 in 10.0 mi WNW 9.2 mph - N/A   Mostly Cloudy
3:52 PM 10.0 °F -5.2 °F -5.1 °F 51% 30.56 in 10.0 mi West 12.7 mph - N/A   Scattered Clouds
4:52 PM 9.0 °F -2.2 °F -5.1 °F 53% 30.54 in 10.0 mi WNW 6.9 mph - N/A   Scattered Clouds
5:52 PM 8.1 °F -4.3 °F -4.0 °F 58% 30.53 in 10.0 mi West 8.1 mph - N/A   Scattered Clouds
6:52 PM 6.1 °F -2.8 °F -4.0 °F 63% 30.53 in 10.0 mi West 4.6 mph - N/A   Partly Cloudy
7:52 PM 5.0 °F -2.1 °F -4.0 °F 66% 30.52 in 10.0 mi West 3.5 mph - N/A   Clear
8:52 PM 3.0 °F - -4.0 °F 73% 30.52 in 10.0 mi Calm Calm - N/A   Mostly Cloudy
9:52 PM 6.1 °F -0.9 °F -2.9 °F 67% 30.51 in 10.0 mi SSW 3.5 mph - N/A   Partly Cloudy
10:52 PM 6.1 °F -4.3 °F -5.1 °F 60% 30.50 in 10.0 mi SW 5.8 mph - N/A   Mostly Cloudy
11:52 PM 6.1 °F -6.8 °F -5.1 °F 60% 30.48 in 10.0 mi WSW 8.1 mph - N/A   Mostly Cloudy